EW3204 Weather Reports


Display with metric or nautical units.
time (UTC)temp
F
wind
direction
speed
MPH
gust
MPH
rain 1hr
in
rain 24hr
in
rain mn
in
humidity
%
barometer
mb
20260904224518 99 281 9.0 0.0 0.00 0.00 0.00 8 1005.2
20260904223021 99 352 2.0 0.0 0.00 0.00 0.00 8 1005.4
20260904221514 98 129 5.0 0.0 0.00 0.00 0.00 8 1005.5
20260904220056 98 195 5.0 0.0 0.00 0.00 0.00 8 1005.6
20260904214554 99 131 2.0 0.0 0.00 0.00 0.00 8 1005.8
20260904213050 97 359 3.0 0.0 0.00 0.00 0.00 8 1005.9
20260904211548 97 79 4.0 0.0 0.00 0.00 0.00 8 1006.0
20260904210053 96 13 4.0 0.0 0.00 0.00 0.00 8 1006.0
20260904204547 96 344 4.0 0.0 0.00 0.00 0.00 9 1006.2
20260904203043 95 261 3.0 0.0 0.00 0.00 0.00 9 1006.3
20260904201551 94 274 3.0 0.0 0.00 0.00 0.00 9 1006.6
20260904200040 94 125 4.0 0.0 0.00 0.00 0.00 10 1006.9
20260904194549 94 138 5.0 0.0 0.00 0.00 0.00 9 1007.0
20260904193034 92 123 4.0 0.0 0.00 0.00 0.00 10 1007.2
20260904191534 92 67 6.0 0.0 0.00 0.00 0.00 10 1007.5
20260904190032 92 52 4.0 0.0 0.00 0.00 0.00 10 1007.7
20260904184530 91 83 6.0 0.0 0.00 0.00 0.00 11 1007.9
20260904183029 90 90 6.0 0.0 0.00 0.00 0.00 11 1008.0
20260904181526 90 92 5.0 0.0 0.00 0.00 0.00 11 1008.2
20260904180024 89 111 2.0 0.0 0.00 0.00 0.00 11 1008.3
20260904174528 88 98 4.0 0.0 0.00 0.00 0.00 11 1008.4
20260904173020 87 117 4.0 0.0 0.00 0.00 0.00 11 1008.4
20260904171640 87 108 4.0 0.0 0.00 0.00 0.00 12 1008.3
20260904170015 86 80 4.0 0.0 0.00 0.00 0.00 12 1008.5
20260904164515 85 122 3.0 0.0 0.00 0.00 0.00 12 1008.4
20260904163013 84 81 4.0 0.0 0.00 0.00 0.00 13 1008.3
20260904161510 85 121 2.0 0.0 0.00 0.00 0.00 11 1008.3
20260904160007 84 275 1.0 0.0 0.00 0.00 0.00 11 1008.2
20260904154638 84 275 0.0 0.0 0.00 0.00 0.00 11 1008.2
20260904153101 81 275 0.0 0.0 0.00 0.00 0.00 17 1008.1
20260904151613 79 275 0.0 0.0 0.00 0.00 0.00 20 1008.0
20260904150121 79 275 0.0 0.0 0.00 0.00 0.00 20 1008.0
20260904144554 78 275 1.0 0.0 0.00 0.00 0.00 21 1007.9
20260904141552 74 213 1.0 0.0 0.00 0.00 0.00 23 1007.6
20260904140047 72 213 2.0 0.0 0.00 0.00 0.00 22 1007.3
20260904134553 71 213 2.0 0.0 0.00 0.00 0.00 23 1007.0
20260904133043 72 213 3.0 0.0 0.00 0.00 0.00 23 1006.8
20260904131543 72 213 0.0 0.0 0.00 0.00 0.00 25 1006.7
20260904130040 72 213 2.0 0.0 0.00 0.00 0.00 25 1006.4
20260904124528 72 146 2.0 0.0 0.00 0.00 0.00 24 1006.3
20260904123026 73 100 4.0 0.0 0.00 0.00 0.00 23 1006.1
20260904121526 75 141 3.0 0.0 0.00 0.00 0.00 21 1005.9
20260904120024 74 198 5.0 0.0 0.00 0.00 0.00 16 1005.9
20260904114531 73 225 5.0 0.0 0.00 0.00 0.00 17 1005.9
20260904113022 76 202 5.0 0.0 0.00 0.00 0.00 16 1005.8
20260904111528 75 209 5.0 0.0 0.00 0.00 0.00 16 1005.7
20260904110021 75 213 5.0 0.0 0.00 0.00 0.00 16 1005.6
20260904104521 74 231 3.0 0.0 0.00 0.00 0.00 16 1005.6
20260904103020 72 228 3.0 0.0 0.00 0.00 0.00 17 1005.6
20260904101518 75 229 3.0 0.0 0.00 0.00 0.00 16 1005.5
20260904100016 76 212 2.0 0.0 0.00 0.00 0.00 15 1005.5
20260904094531 76 299 1.0 0.0 0.00 0.00 0.00 18 1005.3
20260904093014 76 223 3.0 0.0 0.00 0.00 0.00 18 1005.4
20260904091514 77 108 2.0 0.0 0.00 0.00 0.00 18 1005.2
20260904090011 78 73 4.0 0.0 0.00 0.00 0.00 18 1005.2
20260904084513 76 179 2.0 0.0 0.00 0.00 0.00 18 1005.4
20260904083011 75 115 2.0 0.0 0.00 0.00 0.00 17 1005.4
20260904081510 76 208 3.0 0.0 0.00 0.00 0.00 20 1005.6
20260904080010 76 208 4.0 0.0 0.00 0.00 0.00 21 1005.5
20260904073101 76 271 3.0 0.0 0.00 0.00 0.00 23 1005.8
20260904071558 76 204 3.0 0.0 0.00 0.00 0.00 23 1005.7
20260904070100 77 210 3.0 0.0 0.00 0.00 0.00 23 1005.7
20260904064550 78 202 2.0 0.0 0.00 0.00 0.00 23 1005.7
20260904063046 78 202 2.0 0.0 0.00 0.00 0.00 23 1005.6
20260904061543 79 202 3.0 0.0 0.00 0.00 0.00 23 1005.6
20260904060037 79 202 3.0 0.0 0.00 0.00 0.00 23 1005.6
20260904054533 78 239 3.0 0.0 0.00 0.00 0.00 25 1005.6
20260904053028 78 226 2.0 0.0 0.00 0.00 0.00 25 1005.7
20260904051523 80 226 0.0 0.0 0.00 0.00 0.00 23 1005.7
20260904050019 80 226 0.0 0.0 0.00 0.00 0.00 24 1005.7
20260904044518 81 162 2.0 0.0 0.00 0.00 0.00 24 1005.8
20260904043013 80 167 4.0 0.0 0.00 0.00 0.00 25 1005.6
20260904041509 81 241 1.0 0.0 0.00 0.00 0.00 24 1005.5
20260904040001 82 312 5.0 0.0 0.00 0.00 0.00 23 1005.4
20260904034557 82 307 7.0 0.0 0.00 0.00 0.00 24 1005.2
20260904033054 83 329 7.0 0.0 0.00 0.00 0.00 25 1005.2
20260904031550 83 315 8.0 0.0 0.00 0.00 0.00 25 1005.0
20260904030045 84 288 8.0 0.0 0.00 0.00 0.00 26 1004.8
20260904024547 84 276 7.0 0.0 0.00 0.00 0.00 27 1004.7
20260904023038 84 279 9.0 0.0 0.00 0.00 0.00 27 1004.6
20260904021535 85 301 10.0 0.0 0.00 0.00 0.00 28 1004.6
20260904020028 86 296 10.0 0.0 0.00 0.00 0.00 26 1004.5
20260904014524 87 279 13.0 0.0 0.00 0.00 0.00 25 1004.3
20260904013019 88 272 13.0 0.0 0.00 0.00 0.00 24 1004.3
20260904011518 88 296 17.0 0.0 0.00 0.00 0.00 23 1004.2
20260904010011 90 308 18.0 0.0 0.00 0.00 0.00 22 1004.2
20260904004506 91 235 14.0 0.0 0.00 0.00 0.00 21 1004.2
20260904003001 92 283 13.0 0.0 0.00 0.00 0.00 19 1004.2
20260904001558 94 258 10.0 0.0 0.00 0.00 0.00 17 1004.1
20260904000104 94 271 11.0 0.0 0.00 0.00 0.00 17 1004.0
20260903234548 94 278 15.0 0.0 0.00 0.00 0.00 17 1004.1
20260903233050 95 307 12.0 0.0 0.00 0.00 0.00 17 1004.1
20260903231542 95 275 13.0 0.0 0.00 0.00 0.00 16 1004.2
20260903230037 96 257 12.0 0.0 0.00 0.00 0.00 14 1004.4